Regional Weather Roundup
Issued by NWS

Home | Current Version | Previous Version | Graphics & Text | Print | Product List | Glossary On
Versions: 1 2 3 4 5 6 7 8 9 10 11 12 13 14 15 16 17 18 19 20 21 22 23 24 25 26 27 28 29 30 31 32 33 34 35 36 37 38 39 40 41 42 43 44 45 46 47 48 49 50
908
ASUS44 KJAN 251110
RWRMS

MISSISSIPPI HOURLY WEATHER ROUNDUP
NATIONAL WEATHER SERVICE JACKSON MS
500 AM CST TUE NOV 25 2014

NOTE: "FAIR: INDICATES FEW OR NO CLOUDS BELOW 12,000 FEET WITH NO
SIGNIFICANT WEATHER AND/OR OBSTRUCTIONS TO VISIBILITY.

MSZ001>002-007>008-010>013-018>021-025>028-034>036-251200-
NORTHWEST MISSISSIPPI

CITY           SKY/WX    TMP DP  RH WIND       PRES   REMARKS
CLARKSDALE     FAIR      37  32  81 NW7       30.19R WCI  32
CLEVELAND      FAIR      38  34  85 N6        30.17R WCI  33
GREENWOOD      CLEAR     31  29  92 CALM      30.17R
GREENVILLE     CLEAR     39  31  72 N5        30.15S
GRENADA        FAIR      32  32 100 CALM      30.17R
OLIVE BRANCH   CLEAR     36  30  80 NW7       30.15R WCI  30
OXFORD         FAIR      28  28 100 CALM      30.16R
TUNICA         SUNNY     37  30  75 NW5       30.19R WCI  34
$$

MSZ003>006-009-014>017-022>024-029>033-037>039-251200-
NORTHEAST MISSISSIPPI

CITY           SKY/WX    TMP DP  RH WIND       PRES   REMARKS
COLUMBUS AFB   CLEAR     33  32  96 CALM      30.13R
CORINTH        FAIR      30  28  93 CALM      30.13R
GOLDN TRIANGLE CLEAR     37  32  81 NW3       30.12R
STARKVILLE       N/A     32  32 100 CALM      30.14R
TUPELO         CLEAR     39  31  72 N7        30.13R WCI  34
$$

MSZ040-058-251200-
CENTRAL MISSISSIPPI

CITY           SKY/WX    TMP DP  RH WIND       PRES   REMARKS
JACKSON INTL   CLEAR     39  34  82 CALM      30.13S
JACKSON HAWKNS CLEAR     40  33  76 CALM      30.13S
MERIDIAN KEY   MOCLDY    44  40  85 CALM      30.13R
MERIDIAN NAS   PTCLDY    43  39  86 N5        30.13R
RAYMOND        FAIR      32  28  86 MISG      30.14F
VICKSBURG      CLEAR     30  29  96 CALM      30.17S
$$

MSZ059>079-251200-
SOUTH MISSISSIPPI

CITY           SKY/WX    TMP DP  RH WIND       PRES   REMARKS
BROOKHAVEN     FAIR      43  36  75 N5        30.13F
COLUMBIA       PTSUNNY   43  41  93 MISG        N/A
HATTIESBURG    CLOUDY    48  39  71 N3        30.12S
MCCOMB         CLEAR     47  35  63 N3        30.12S
NATCHEZ        CLEAR     36  30  80 CALM      30.15R
PINE BELT      CLOUDY    46  36  66 NW6       30.12S
$$

MSZ080>082-251200-
COASTAL MISSISSIPPI

CITY           SKY/WX    TMP DP  RH WIND       PRES   REMARKS
BILOXI         CLOUDY    55  37  50 NE14G21   30.08R
PASCAGOULA     CLOUDY    52  36  54 N8        30.09R
GULFPORT       CLOUDY    54  35  48 N13       30.08R
$$



USA.gov is the U.S. government's official web portal to all federal, state and local government web resources and services.